Regional Weather Roundup
Issued by NWS Charleston, SC

Home | Current Version | Previous Version | Text Only | Print | Product List | Glossary On
Versions: 1 2 3 4 5 6 7 8 9 10 11 12 13 14 15 16 17 18 19 20 21 22 23 24 25 26 27 28 29 30 31 32 33 34 35 36 37 38 39 40 41 42 43 44 45 46 47 48 49 50
000
ASUS42 KCHS 230625
RWRCHS

REGIONAL WEATHER ROUNDUP
NATIONAL WEATHER SERVICE CHARLESTON SC
200 AM EDT WED JUL 23 2014

NOTE: "FAIR" INDICATES FEW OR NO CLOUDS BELOW 12,000 FEET WITH NO
SIGNIFICANT WEATHER AND/OR OBSTRUCTIONS TO VISIBILITY.

NOT ALL STATIONS ARE QUALITY CONTROLLED BY THE NATIONAL
WEATHER SERVICE. USE DATA WITH CAUTION...ESPECIALLY
DEWPOINT OBSERVATIONS.

SCZ027-030-031-034>040-042>050-230700-
...SOUTH CAROLINA...

CITY           SKY/WX    TMP DP  RH WIND       PRES   REMARKS
N CHARLESTON   PTCLDY    76  73  91 CALM      30.08S
6HR MIN TEMP:  76; 6HR MAX TEMP:  82;

WATERFRONT PRK   N/A     81 N/A N/A CALM        N/A
FORT JOHNSON   NOT AVBL
MOUNT PLEASANT FAIR      73  73 100 CALM      30.07F FOG
JOHNS ISLAND   CLEAR     75  66  73 CALM      30.08S
PINOPOLIS        N/A     79  73  83 CALM      30.00F
MONCKS CORNER    N/A     73  73 100 CALM      30.07F
SUMMERVILLE    FAIR      73  73 100 CALM      30.08F
BEAUFORT MCAS  PTCLDY    77  74  90 CALM      30.07F
6HR MIN TEMP:  77; 6HR MAX TEMP:  83;

BEAUFORT ARPT  FAIR      75  75 100 CALM      30.07S
HILTON HEAD IS PTCLDY    75  75 100 CALM      30.09R
GEORGETOWN     NOT AVBL
WALTERBORO     CLEAR     75 N/A N/A CALM      30.08F
ORANGEBURG     PTCLDY    76  73  91 S3        30.08F
6HR MIN TEMP:  76; 6HR MAX TEMP:  82;

BARNWELL       FAIR      75  73  94 CALM      30.08F
AIKEN          FAIR      73  73 100 CALM      30.12F
MANNING        FAIR      73 N/A N/A MISG      30.08F
KINGSTREE      NOT AVBL
COLUMBIA       MOCLDY    80  73  79 CALM      30.07F
6HR MIN TEMP:  79; 6HR MAX TEMP:  83; 6HR PCP: TRACE;

SUMTER         MOCLDY    75  75 100 CALM      30.07F
6HR MIN TEMP:  74; 6HR MAX TEMP:  81; 6HR PCP: TRACE;

FLORENCE       CLEAR     76  74  93 S3        30.08F
6HR MIN TEMP:  76; 6HR MAX TEMP:  83;

MYRTLE BEACH   MOCLDY    77  73  88 N3        30.08S
N MYRTLE BEACH PTCLDY    79  73  82 W3        30.08F
6HR MIN TEMP:  78; 6HR MAX TEMP:  80;


$$

GAZ063-065-086>088-099>101-113>116-118-119-134-136>141-150-230700-
...GEORGIA...

CITY           SKY/WX    TMP DP  RH WIND       PRES   REMARKS
SAVANNAH ARPT  PTCLDY    76  73  91 CALM      30.08S
6HR MIN TEMP:  76; 6HR MAX TEMP:  82;

HUNTER AAF     MOCLDY    75  75  99 W1        30.06S
6HR MIN TEMP:  75; 6HR MAX TEMP:  82; 6HR PCP: TRACE;

FORT STEWART   PTCLDY    75  73  95 CALM      30.07S
6HR MIN TEMP:  75; 6HR MAX TEMP:  83;

STATESBORO     NOT AVBL
SYLVANIA       PTCLDY    73  73 100 CALM      30.09S FOG
CLAXTON        FAIR     N/A N/A N/A CALM      30.08S HAZE
THOMSON        MOCLDY    75  75 100 CALM      30.13F
AUGUSTA-BUSH   PTCLDY    73  72  96 CALM      30.07F
6HR MIN TEMP:  73; 6HR MAX TEMP:  81;

AUGUSTA-DANIEL PTCLDY    76  73  91 CALM      30.09F
SWAINSBORO     FAIR      75  75 100 CALM      30.09R
VIDALIA          N/A     73  73 100 CALM      30.08S
ALMA           MOCLDY    72  71  97 CALM      30.07F
6HR MIN TEMP:  72; 6HR MAX TEMP:  81;

WAYCROSS       MOCLDY    77  77  99 E3        30.07S FOG
JESUP          NOT AVBL
BRUNSWICK      MOCLDY    75  73  94 CALM      30.07S
SAINT SIMONS   MOCLDY    80  74  81 S5        30.06F
6HR MIN TEMP:  80; 6HR MAX TEMP:  81;


$$

SCZ027-028-034-036>038-045-046-048>050-GAZ119-141-230700-
...LAKE AND SUPPLEMENTAL COASTAL OBSERVATIONS...

STATION/POSITION TIME  TEMP    WIND        PRES    WAVE   SWELL
                       AIR SEA DIR/SP/G            HT/PER HT/PER/DIR
                 (UTC) (F)     (DEG/KT/KT) (MB)    (FT/S) (FT/S/D)
UPR LAKE MARION  NOT AVBL
WINYAH BAY       0600   77     300/  2     1018.0S
LAKE MURRAY      0500   77      CALM  /  2 1018.3F
ACE BASIN NERRS  0600   75        CALM     1018.0S
FORT PULASKI     0600   79        CALM     1018.6S
SAPELO ISLAND    0600   76        CALM     1018.0S

$$

ANZ835-935-AMZ111-154-330-350-352-354-374-450-454-472-230700-
...C-MAN AND BUOY OBSERVATIONS...

STATION/POSITION TIME  TEMP    WIND        PRES    WAVE   SWELL
                       AIR SEA DIR/SP/G            HT/PER HT/PER/DIR
                 (UTC) (F)     (DEG/KT/KT) (MB)    (FT/S) (FT/S/D)
FOLLY BEACH CMAN 0600   81     210/  5/  6 1018.8F
BUOY 41004       0600   81 82  180/  8/  8 1017.7F   3/ 7   3/ 7
BUOY 41008       0600   82 84  170/  6/  8 1018.3F   3/ 7   2/110/ 7
5E ST. MARYS GA  0600      84                N/A     2/ 6
FRYING PAN BUOY  NOT AVBL
BUOY 41025       0600          VRB 16/ 17  1018.4F   4/ 8   2/110/ 8
CAPE LOOKOUT NC  0600   79     230/  9/ 12 1018.6F
BUOY 41002       0503   82 82  200/ 16/ 17 1020.4    4/ 7   2/120/ 7
BUOY 41010       0600   83 84  150/ 16/ 17 1018.4F   4/ 8   2/ 90/ 8
BUOY 41012       NOT AVBL
ST AUGUSTINE FL  0600   79     250/  3/  4 1018.4F
CAPERS NEARSHORE 0500   80     190/  8/ 10   N/A
FRIPP NEARSHORE  NOT AVBL


$$



USA.gov is the U.S. government's official web portal to all federal, state and local government web resources and services.